DECAYED

STARLINK-34061, 63876 (Decayed)

Orbit data source: Space-Track

STARLINK-34061, 63876 was a payload satellite owned by SpaceX/Seattle (US) in LEO that was launched on Sat, 10 May 2025 UTC via an FALCON 9 launch vehicle from the Air Force Western Test Range (AFWTR). Payload-class satellites include a variety of spacecraft equipped with specific instruments for various scientific and technological missions. These include communications satellites like Starlink; space stations such as the ISS; scientific satellites like the Hubble; Earth observation satellites from companies like Planet Labs, Umbra, and HawkEye 360; GPS; miniature CubeSats for education and research; and military/defense satellites.

Not visible in the next 10 days
Identifier
63876, 2025-094N
Orbit
Decayed
Country
Flag of USUS
Related business
Manufacturer
SpaceX/Seattle
Mission
Decayed Commercial Communications
Bus & Motor
STARLINK V2MO, Unknown motor
Mass
575 kg wet, ~530 kg dry
Launch date (UTC)
2025-05-10 (1 year ago)
Launch vehicle
FALCON 9
Launch site
Air Force Western Test Range (AFWTR)
Object type
Payload
Rocket body
Debris
Shape & HBR
Box + 2 Pan, 17.7 m
Radar Cross Section
36.964 m², Large (>1 m²)

Expand to show TLE details & history
Last TLE update: 1 month ago

TLE from 1 month ago
0 STARLINK-34061
1 63876U 25094N   26128.43409094  .19143507  42963-5  21786-2 0  9997
2 63876  69.9925  78.8764 0012495 224.1035 135.9199 16.36429723 56270
Epoch: 2026-05-08T10:25Z
TLE epoch observation values (Epoch: 2026-05-08T10:25:05.457Z)
Latitude
0.00001°
Longitude
56.33773°
Altitude
183.776 km
Speed
7.793 km/s
True Right ascension
05h 15m 30s
True Declination
0° 00' 00"
Sunlit
Object was in daylight at epoch
Visualization orbit readout
Latitude
Unknown
Longitude
Unknown
Altitude
Unknown
Speed
Unknown
Apparent Right ascension
Unknown
Apparent Declination
Unknown
Sunlit
N/A
Visualization observer readout
Local Sidereal Time
07:16:46
Azimuth
Unknown
Elevation
Unknown
Doppler factor
Unknown
Orbital elements
Apogee altitude
181.327 km
Perigee altitude
164.956 km
Semi-major axis
6,551.279 km
Eccentricity
0.00125
Inclination
69.9925°
RAAN
78.8764°
Arg. of periapsis
224.1035°
True anomaly
136.01939°
Mean anomaly
135.9199°
Eccentric anomaly
135.96966°
Mean motion
4.09312 °/min
Orbital period
87.95 mins
BSTAR
0.0021786
Loading maneuver chart data...
Computing Atmospheric mass density...
Loading historical data...
Loading historical data...
Loading historical data...
Loading historical data...
Loading historical data...
Loading historical data...
Loading historical data...

Documentation

Showing up to 5 results
|